When you browse on this site, cookies collect data to enhance your experience and personalize the content and advertising you see.
Visit our Privacy Policy to learn more. By continuing to use the site, you agree to this use of cookies and data.
  • In Lithuania
  • List of Countries
  • For 7 days
  • Water Temperature
  • Weather Map
  • Weather Widgets
  • user-avatar
    Login

    Hourly Weather Newcastle

    Today, 20 October, Sunday

    Time Temperature Precipitation Wind Pressure Humidity
    00:00 +14°C° 0.1 mm 5 mps 763 mmHg 76%
    01:00 +13°C° 0.1 mm 4 mps 763 mmHg 81%
    02:00 +13°C° 0.2 mm 4 mps 763 mmHg 80%
    03:00 +12°C° 0.2 mm 3 mps 763 mmHg 79%
    04:00 +11°C° 0 mm 3 mps 763 mmHg 77%
    05:00 +12°C° 0.2 mm 3 mps 764 mmHg 74%
    06:00 +13°C° 0.2 mm 3 mps 764 mmHg 71%
    07:00 +13°C° 0.2 mm 3 mps 765 mmHg 68%
    08:00 +17°C° 0 mm 3 mps 765 mmHg 60%
    09:00 +19°C° 0 mm 3 mps 765 mmHg 53%
    10:00 +23°C° 0 mm 2 mps 765 mmHg 42%
    11:00 +22°C° 0 mm 3 mps 765 mmHg 43%
    12:00 +22°C° 0 mm 3 mps 765 mmHg 44%
    13:00 +22°C° 0 mm 4 mps 764 mmHg 44%
    14:00 +21°C° 0 mm 4 mps 764 mmHg 48%
    15:00 +20°C° 0 mm 4 mps 764 mmHg 52%
    16:00 +20°C° 0 mm 4 mps 764 mmHg 55%
    17:00 +18°C° 0 mm 4 mps 765 mmHg 64%
    18:00 +15°C° 0 mm 4 mps 766 mmHg 73%
    19:00 +14°C° 0 mm 3 mps 767 mmHg 82%
    20:00 +13°C° 0 mm 3 mps 767 mmHg 85%
    21:00 +14°C° 0 mm 2 mps 768 mmHg 88%
    22:00 +13°C° 0 mm 2 mps 768 mmHg 90%
    23:00 +13°C° 0 mm 2 mps 768 mmHg 89%

    Tomorrow, 21 October, Monday

    Time Temperature Precipitation Wind Pressure Humidity
    00:00 +13°C° 0 mm 2 mps 768 mmHg 87%
    01:00 +13°C° 0 mm 2 mps 768 mmHg 86%
    02:00 +13°C° 0 mm 1 mps 768 mmHg 86%
    03:00 +13°C° 0 mm 1 mps 768 mmHg 87%
    04:00 +12°C° 0 mm 1 mps 768 mmHg 87%
    05:00 +14°C° 0 mm 1 mps 768 mmHg 82%
    06:00 +15°C° 0 mm 1 mps 769 mmHg 76%
    07:00 +16°C° 0 mm 1 mps 769 mmHg 71%
    08:00 +20°C° 0 mm 1 mps 769 mmHg 62%
    09:00 +22°C° 0 mm 1 mps 769 mmHg 52%
    10:00 +25°C° 0 mm 1 mps 769 mmHg 43%
    11:00 +25°C° 0 mm 2 mps 768 mmHg 43%
    12:00 +25°C° 0 mm 2 mps 768 mmHg 42%
    13:00 +25°C° 0 mm 3 mps 768 mmHg 41%
    14:00 +24°C° 0 mm 3 mps 767 mmHg 44%
    15:00 +22°C° 0 mm 4 mps 767 mmHg 47%
    16:00 +21°C° 0 mm 4 mps 767 mmHg 50%
    17:00 +19°C° 0 mm 3 mps 767 mmHg 60%
    18:00 +17°C° 0 mm 3 mps 768 mmHg 70%
    19:00 +14°C° 0 mm 3 mps 768 mmHg 79%
    20:00 +14°C° 0 mm 2 mps 769 mmHg 83%
    21:00 +14°C° 0 mm 2 mps 769 mmHg 87%
    22:00 +13°C° 0 mm 1 mps 769 mmHg 91%
    23:00 +13°C° 0 mm 1 mps 769 mmHg 92%

    Day after tomorrow, 22 October, Tuesday

    Time Temperature Precipitation Wind Pressure Humidity
    00:00 +12°C° 0 mm 1 mps 768 mmHg 93%
    01:00 +12°C° 0 mm 1 mps 768 mmHg 94%
    02:00 +12°C° 0 mm 1 mps 768 mmHg 94%
    03:00 +12°C° 0 mm 1 mps 768 mmHg 95%
    04:00 +11°C° 0 mm 1 mps 768 mmHg 95%
    05:00 +13°C° 0 mm 1 mps 768 mmHg 89%
    06:00 +14°C° 0 mm 1 mps 768 mmHg 83%
    07:00 +16°C° 0 mm 1 mps 769 mmHg 77%
    08:00 +20°C° 0 mm 1 mps 768 mmHg 66%
    09:00 +22°C° 0 mm 1 mps 768 mmHg 56%
    10:00 +25°C° 0 mm 1 mps 768 mmHg 45%
    11:00 +26°C° 0 mm 2 mps 767 mmHg 43%
    12:00 +26°C° 0 mm 3 mps 767 mmHg 42%
    13:00 +27°C° 0 mm 4 mps 766 mmHg 40%
    14:00 +26°C° 0 mm 4 mps 766 mmHg 45%
    15:00 +25°C° 0 mm 5 mps 765 mmHg 50%
    16:00 +23°C° 0 mm 5 mps 765 mmHg 55%
    17:00 +21°C° 0 mm 5 mps 766 mmHg 63%
    18:00 +19°C° 0 mm 5 mps 766 mmHg 71%
    19:00 +16°C° 0 mm 5 mps 767 mmHg 79%
    20:00 +15°C° 0 mm 4 mps 767 mmHg 82%
    21:00 +14°C° 0 mm 4 mps 767 mmHg 85%
    22:00 +14°C° 0 mm 4 mps 767 mmHg 88%
    23:00 +13°C° 0 mm 3 mps 767 mmHg 90%

    23 October, Wednesday

    Time Temperature Precipitation Wind Pressure Humidity
    00:00 +13°C° 0 mm 3 mps 767 mmHg 92%
    01:00 +12°C° 0 mm 3 mps 766 mmHg 94%
    02:00 +13°C° 0 mm 2 mps 766 mmHg 95%
    03:00 +12°C° 0 mm 2 mps 766 mmHg 95%
    04:00 +12°C° 0 mm 2 mps 766 mmHg 95%
    05:00 +13°C° 0 mm 2 mps 766 mmHg 89%
    06:00 +15°C° 0 mm 2 mps 766 mmHg 83%
    07:00 +16°C° 0 mm 2 mps 766 mmHg 77%
    08:00 +19°C° 0 mm 2 mps 766 mmHg 66%
    09:00 +23°C° 0 mm 2 mps 766 mmHg 55%
    10:00 +26°C° 0 mm 2 mps 766 mmHg 44%
    11:00 +28°C° 0 mm 3 mps 765 mmHg 40%
    12:00 +29°C° 0 mm 4 mps 764 mmHg 36%
    13:00 +32°C° 0 mm 5 mps 763 mmHg 33%
    14:00 +32°C° 0 mm 5 mps 763 mmHg 33%
    15:00 +32°C° 0 mm 5 mps 762 mmHg 34%
    16:00 +30°C° 0 mm 6 mps 762 mmHg 35%
    17:00 +28°C° 0 mm 5 mps 762 mmHg 43%
    18:00 +25°C° 0 mm 4 mps 763 mmHg 52%
    19:00 +22°C° 0 mm 3 mps 763 mmHg 61%
    20:00 +21°C° 0 mm 3 mps 763 mmHg 63%
    21:00 +20°C° 0 mm 2 mps 763 mmHg 65%
    22:00 +20°C° 0 mm 2 mps 763 mmHg 67%
    23:00 +19°C° 0 mm 2 mps 763 mmHg 70%

    24 October, Thursday

    Time Temperature Precipitation Wind Pressure Humidity
    00:00 +18°C° 0 mm 2 mps 763 mmHg 73%
    01:00 +18°C° 0 mm 1 mps 762 mmHg 75%
    02:00 +16°C° 0 mm 2 mps 762 mmHg 74%
    03:00 +16°C° 0 mm 2 mps 762 mmHg 72%
    04:00 +16°C° 0 mm 2 mps 762 mmHg 71%
    05:00 +17°C° 0 mm 2 mps 762 mmHg 65%
    06:00 +19°C° 0 mm 2 mps 763 mmHg 60%
    07:00 +20°C° 0 mm 2 mps 763 mmHg 54%
    08:00 +24°C° 0 mm 2 mps 763 mmHg 48%
    09:00 +27°C° 0 mm 2 mps 763 mmHg 41%
    10:00 +29°C° 0 mm 2 mps 762 mmHg 35%
    11:00 +30°C° 0 mm 2 mps 762 mmHg 33%
    12:00 +32°C° 0 mm 2 mps 762 mmHg 31%
    13:00 +34°C° 0 mm 3 mps 761 mmHg 29%
    14:00 +31°C° 0 mm 3 mps 761 mmHg 33%
    15:00 +30°C° 0 mm 4 mps 760 mmHg 36%
    16:00 +29°C° 0 mm 4 mps 760 mmHg 40%
    17:00 +27°C° 0 mm 4 mps 760 mmHg 49%
    18:00 +24°C° 0 mm 3 mps 761 mmHg 58%
    19:00 +20°C° 0 mm 3 mps 761 mmHg 67%
    20:00 +20°C° 0 mm 3 mps 761 mmHg 66%
    21:00 +20°C° 0 mm 3 mps 761 mmHg 65%
    22:00 +19°C° 0 mm 3 mps 761 mmHg 64%
    23:00 +19°C° 0 mm 2 mps 761 mmHg 65%

    25 October, Friday

    Time Temperature Precipitation Wind Pressure Humidity
    00:00 +18°C° 0 mm 2 mps 761 mmHg 65%
    01:00 +18°C° 0 mm 2 mps 760 mmHg 66%
    02:00 +18°C° 0 mm 2 mps 760 mmHg 64%
    03:00 +18°C° 0 mm 2 mps 760 mmHg 63%
    04:00 +17°C° 0 mm 3 mps 760 mmHg 61%
    05:00 +19°C° 0 mm 3 mps 760 mmHg 55%
    06:00 +21°C° 0 mm 3 mps 760 mmHg 49%
    07:00 +23°C° 0 mm 4 mps 760 mmHg 43%
    08:00 +26°C° 0 mm 4 mps 760 mmHg 38%
    09:00 +29°C° 0 mm 5 mps 760 mmHg 33%
    10:00 +33°C° 0 mm 5 mps 759 mmHg 29%
    11:00 +34°C° 0 mm 5 mps 759 mmHg 26%
    12:00 +35°C° 0 mm 5 mps 758 mmHg 24%
    13:00 +36°C° 0 mm 4 mps 757 mmHg 22%
    14:00 +35°C° 0 mm 5 mps 757 mmHg 23%
    15:00 +35°C° 0 mm 5 mps 756 mmHg 24%
    16:00 +34°C° 0 mm 6 mps 756 mmHg 25%
    17:00 +32°C° 0 mm 5 mps 756 mmHg 33%
    18:00 +28°C° 0 mm 5 mps 756 mmHg 40%
    19:00 +25°C° 0 mm 4 mps 757 mmHg 47%
    20:00 +23°C° 0 mm 4 mps 757 mmHg 48%
    21:00 +23°C° 0 mm 4 mps 756 mmHg 49%
    22:00 +22°C° 0 mm 4 mps 756 mmHg 50%
    23:00 +21°C° 0 mm 4 mps 756 mmHg 51%
    Show more